DateTimeUTC,F1_A11,F1_S11,BsB_S11,BsG_S11,BsR_S11,BbsB_S11,BbsG_S11,BbsR_S11,BaB_A11,BaG_A11,BaR_A11,Tu_S11,T_S11,Uu_S11,U_S11,P_S11,T1_A11
2021-07-27T14:00:00Z,00000200,20000000,,,,,,,0000.09,0000.06,0000.13,20.0,26.3,14.1,09.6,0685.7,31.2
2021-07-27T14:01:00Z,00000200,20000000,,,,,,,-000.18,0000.20,-000.23,20.0,26.3,14.1,09.6,0685.7,31.1
2021-07-27T14:02:00Z,00000200,20000000,,,,,,,0000.04,-000.52,-000.00,20.0,26.3,14.1,09.6,0685.7,31.2
2021-07-27T14:03:00Z,00000200,60000000,,,,,,,0002.87,0003.16,0002.34,20.0,26.3,14.1,09.6,0685.7,31.2
2021-07-27T14:04:00Z,00000200,40000000,0019.62,0016.31,0011.58,0001.97,0001.86,0001.51,0004.00,0003.01,0002.53,20.1,26.2,14.1,09.8,0686.7,31.2
2021-07-27T14:05:00Z,00000200,00000000,0020.65,0017.22,0011.78,0002.87,0002.06,0001.76,0003.71,0003.31,0003.13,20.2,26.2,14.2,09.9,0686.8,31.2
2021-07-27T14:06:00Z,00000200,00000000,0021.49,0017.41,0011.95,0002.81,0002.07,0002.02,0003.72,0004.04,0002.30,20.2,26.2,14.2,09.9,0686.8,31.2
2021-07-27T14:07:00Z,00000200,00000000,0021.82,0017.73,0012.17,0002.77,0002.03,0001.84,0004.58,0004.06,0003.28,20.2,26.2,14.3,10.0,0686.8,31.2
2021-07-27T14:08:00Z,00000200,00000000,0020.92,0017.85,0011.99,0003.06,0002.11,0001.52,0003.47,0003.08,0003.05,20.2,26.2,14.3,09.9,0686.8,31.2
2021-07-27T14:09:00Z,00000200,00000000,0022.39,0018.26,0013.21,0002.74,0002.17,0001.94,0004.09,0004.21,0003.04,20.2,26.2,14.3,10.0,0686.8,31.2
2021-07-27T14:10:00Z,00000200,00000000,0022.23,0018.35,0012.92,0002.94,0002.29,0001.81,0004.17,0003.66,0003.10,20.2,26.2,14.3,10.0,0686.8,31.2
2021-07-27T14:11:00Z,00000200,00000000,0024.19,0018.91,0012.91,0002.97,0002.56,0001.40,0004.23,0003.85,0003.01,20.2,26.2,14.4,10.0,0686.8,31.2
2021-07-27T14:12:00Z,00000200,00000000,0024.82,0018.55,0013.73,0003.49,0002.45,0001.74,0004.40,0004.05,0002.81,20.2,26.2,14.4,10.0,0686.7,31.2
2021-07-27T14:13:00Z,00000200,00000000,0023.36,0018.86,0014.07,0003.05,0002.76,0002.06,0004.59,0004.21,0003.26,20.3,26.2,14.4,10.0,0686.7,31.2
2021-07-27T14:14:00Z,00000200,00000000,0023.99,0019.90,0014.20,0003.54,0002.40,0002.09,0004.16,0003.51,0003.43,20.3,26.2,14.3,10.0,0686.7,31.2
2021-07-27T14:15:00Z,00000200,00000000,0024.05,0019.38,0014.31,0002.91,0002.44,0002.04,0004.39,0004.54,0003.38,20.3,26.2,14.3,09.9,0686.7,31.2
2021-07-27T14:16:00Z,00000200,00000000,0024.78,0020.02,0014.83,0003.67,0002.25,0001.73,0004.60,0004.11,0003.45,20.3,26.3,14.3,10.0,0686.8,31.2
2021-07-27T14:17:00Z,00000200,00000000,0024.57,0020.41,0014.52,0002.96,0002.82,0002.21,0004.57,0004.33,0003.37,20.3,26.3,14.5,10.1,0686.8,31.2
2021-07-27T14:18:00Z,00000200,00000000,0025.78,0021.03,0015.07,0002.97,0002.51,0002.22,0004.92,0004.28,0003.49,20.3,26.2,14.4,10.0,0686.8,31.2
2021-07-27T14:19:00Z,00000200,00000000,0024.77,0020.89,0015.01,0003.45,0001.97,0002.26,0004.94,0004.46,0003.78,20.3,26.2,14.3,10.0,0686.8,31.2
2021-07-27T14:20:00Z,00000200,00000000,0025.39,0020.50,0014.83,0003.46,0002.48,0002.09,0004.43,0004.25,0003.38,20.3,26.2,14.4,10.0,0686.8,31.1
2021-07-27T14:21:00Z,00000200,00000000,0025.78,0021.39,0015.24,0003.39,0002.19,0002.37,0004.73,0004.28,0003.33,20.3,26.2,14.4,10.0,0686.8,31.1
2021-07-27T14:22:00Z,00000200,00000000,0027.14,0021.81,0015.98,0003.05,0002.30,0001.89,0005.09,0004.54,0003.99,20.3,26.2,14.4,10.0,0686.8,31.1
2021-07-27T14:23:00Z,00000200,00000000,0025.89,0021.98,0015.41,0003.66,0002.53,0002.08,0004.71,0004.76,0003.40,20.3,26.2,14.4,10.0,0686.8,31.1
2021-07-27T14:24:00Z,00000200,00000000,0026.42,0021.67,0015.94,0003.14,0002.88,0002.27,0004.54,0004.04,0003.26,20.3,26.2,14.4,10.0,0686.8,31.1
2021-07-27T14:25:00Z,00000200,00000000,0025.24,0021.56,0015.50,0002.88,0002.31,0002.12,0004.89,0004.46,0003.65,20.3,26.2,14.2,09.9,0686.8,31.1
2021-07-27T14:26:00Z,00000200,00000000,0026.41,0022.22,0016.36,0003.45,0002.70,0002.17,0004.74,0004.24,0003.66,20.3,26.3,14.3,10.0,0686.8,31.2
2021-07-27T14:27:00Z,00000200,00000000,0026.61,0022.87,0016.29,0002.66,0002.91,0002.14,0004.81,0004.79,0003.82,20.3,26.2,14.2,09.9,0686.8,31.2
2021-07-27T14:28:00Z,00000200,00000000,0025.70,0022.02,0015.38,0003.43,0002.57,0002.28,0005.00,0004.73,0003.37,20.3,26.2,14.3,10.0,0686.8,31.1
2021-07-27T14:29:00Z,00000200,00000000,0026.37,0021.42,0015.85,0003.74,0002.54,0001.97,0004.89,0004.09,0003.43,20.3,26.2,14.2,09.9,0686.8,31.1
2021-07-27T14:30:00Z,00000200,00000000,0026.03,0021.05,0015.61,0003.40,0002.61,0002.17,0004.50,0004.22,0003.61,20.3,26.2,14.2,09.9,0686.8,31.2
2021-07-27T14:31:00Z,00000200,00000000,0025.06,0020.85,0015.02,0003.22,0002.77,0002.02,0004.82,0004.51,0003.34,20.3,26.2,14.2,09.9,0686.8,31.2
2021-07-27T14:32:00Z,00000200,00000000,0026.22,0021.01,0014.76,0003.24,0002.61,0002.03,0004.63,0004.34,0003.74,20.3,26.2,14.2,09.9,0686.8,31.1
2021-07-27T14:33:00Z,00000200,00000000,0025.23,0021.33,0015.04,0003.32,0002.62,0001.96,0004.39,0004.09,0003.29,20.3,26.2,14.2,09.9,0686.8,31.1
2021-07-27T14:34:00Z,00000200,00000000,0025.16,0021.40,0014.73,0003.25,0002.17,0002.00,0004.98,0004.67,0003.55,20.3,26.2,14.3,09.9,0686.8,31.2
2021-07-27T14:35:00Z,00000200,00000000,0025.34,0020.68,0015.08,0003.77,0002.52,0002.17,0004.73,0004.29,0003.41,20.3,26.3,14.3,09.9,0686.8,31.2
2021-07-27T14:36:00Z,00000200,00010000,0025.37,0020.69,0014.98,0003.23,0002.29,0002.11,0004.72,0004.22,0003.57,20.3,26.3,14.3,10.0,0686.8,31.1
2021-07-27T14:37:00Z,00000200,00000000,0026.68,0021.67,0015.07,0003.91,0002.31,0001.85,0004.70,0004.38,0003.65,20.3,26.2,14.3,10.0,0686.7,31.2
2021-07-27T14:38:00Z,00000200,00000000,0025.82,0021.37,0015.49,0003.37,0002.48,0002.35,0004.58,0004.58,0003.25,20.3,26.3,14.4,10.0,0686.7,31.1
2021-07-27T14:39:00Z,00000200,00000000,0025.38,0021.02,0015.60,0003.27,0002.57,0002.04,0005.20,0004.35,0003.84,20.3,26.3,14.3,10.0,0686.7,31.1
2021-07-27T14:40:00Z,00000200,00000000,0025.90,0020.82,0014.69,0003.82,0002.15,0002.08,0004.54,0004.70,0003.47,20.3,26.3,14.4,10.0,0686.8,31.2
2021-07-27T14:41:00Z,00000200,00000000,0024.81,0020.82,0014.87,0003.27,0002.58,0002.03,0004.61,0003.83,0003.32,20.3,26.3,14.4,10.0,0686.7,31.2
2021-07-27T14:42:00Z,00000200,00000000,0025.49,0021.01,0014.67,0003.08,0002.57,0002.18,0004.98,0004.83,0003.47,20.3,26.3,14.4,10.0,0686.8,31.1
2021-07-27T14:43:00Z,00000200,00000000,0024.30,0020.74,0014.79,0003.16,0002.26,0002.18,0004.57,0003.81,0003.39,20.3,26.3,14.4,10.0,0686.7,31.2
2021-07-27T14:44:00Z,00000200,00000000,0026.17,0021.33,0014.84,0003.17,0002.25,0002.12,0004.65,0004.52,0003.35,20.3,26.3,14.4,10.0,0686.8,31.2
2021-07-27T14:45:00Z,00000200,00000000,0025.55,0021.15,0015.56,0003.78,0002.42,0001.88,0004.60,0004.26,0003.41,20.3,26.2,14.5,10.1,0686.8,31.1
2021-07-27T14:46:00Z,00000200,00000000,0025.13,0020.68,0014.83,0003.67,0002.54,0002.25,0004.94,0004.69,0003.81,20.3,26.3,14.4,10.0,0686.8,31.2
2021-07-27T14:47:00Z,00000200,00000000,0026.75,0021.04,0014.71,0003.56,0002.42,0001.98,0005.20,0004.73,0003.74,20.3,26.3,14.5,10.1,0686.8,31.2
2021-07-27T14:48:00Z,00000200,00000000,0025.76,0021.10,0015.38,0003.52,0002.61,0002.59,0004.37,0003.96,0003.37,20.3,26.2,14.5,10.1,0686.8,31.1
2021-07-27T14:49:00Z,00000200,00000000,0025.19,0021.57,0015.00,0003.96,0002.43,0001.95,0005.01,0004.41,0003.85,20.3,26.3,14.5,10.1,0686.7,31.2
2021-07-27T14:50:00Z,00000200,00000000,0026.49,0021.67,0015.13,0002.92,0002.39,0002.06,0005.01,0004.79,0003.27,20.3,26.3,14.5,10.1,0686.7,31.1
2021-07-27T14:51:00Z,00000200,00000000,0026.93,0021.01,0014.80,0003.39,0002.68,0002.06,0004.65,0004.33,0003.65,20.3,26.3,14.5,10.1,0686.8,31.2
2021-07-27T14:52:00Z,00000200,00000000,0027.09,0021.16,0015.68,0003.58,0003.11,0002.51,0005.29,0004.58,0003.63,20.3,26.3,14.6,10.1,0686.8,31.2
2021-07-27T14:53:00Z,00000200,00000000,0026.11,0021.26,0015.48,0003.54,0002.40,0002.39,0005.14,0004.61,0003.93,20.3,26.3,14.6,10.2,0686.8,31.1
2021-07-27T14:54:00Z,00000200,00000000,0026.43,0021.32,0015.77,0003.15,0002.54,0002.32,0004.80,0004.97,0003.82,20.3,26.3,14.8,10.3,0686.8,31.2
2021-07-27T14:55:00Z,00000200,00000000,0025.58,0021.08,0014.55,0003.28,0002.62,0002.09,0005.33,0004.84,0003.90,20.3,26.3,14.8,10.3,0686.8,31.1
2021-07-27T14:56:00Z,00000200,00000000,0026.78,0021.55,0015.46,0003.37,0002.41,0002.38,0004.85,0004.22,0003.32,20.3,26.3,15.2,10.6,0686.8,31.2
2021-07-27T14:57:00Z,00000200,40000000,,,,,,,0000.86,0001.32,0000.69,20.3,26.3,15.4,10.7,0686.8,31.1
2021-07-27T14:58:00Z,00000200,60000000,,,,,,,-000.05,-000.43,0000.05,20.1,26.4,14.9,10.1,0685.8,31.2
2021-07-27T14:59:00Z,00000200,20000000,,,,,,,-000.41,-000.32,0000.02,20.1,26.5,14.9,10.1,0685.8,31.1
